IRIDIUM 7 1 24793U 97020B 24109.68723165 .00000915 00000-0 31363-3 0 9991 2 24793 86.4003 354.7529 0002428 86.4756 273.6718 14.35159904410993 IRIDIUM 5 1 24795U 97020D 24109.94972551 .00011996 00000-0 11665-2 0 9990 2 24795 86.3874 278.0586 0122493 211.9675 147.4080 14.86908037422269 IRIDIUM 4 1 24796U 97020E 24109.73235062 .00001004 00000-0 33855-3 0 9992 2 24796 86.3995 351.8955 0002229 89.8216 270.3236 14.36081957411536 IRIDIUM 914 1 24836U 97030A 24109.78306518 .00001181 00000-0 36945-3 0 9997 2 24836 86.3985 1.7167 0002736 127.8415 232.3032 14.39929231546038 IRIDIUM 16 1 24841U 97030F 24109.81115164 .00001344 00000-0 43978-3 0 9997 2 24841 86.4087 23.5144 0003612 52.6355 307.5172 14.37821232406009 IRIDIUM 911 1 24842U 97030G 24109.81546295 .00001738 00000-0 47761-3 0 9992 2 24842 86.4513 22.6902 0016554 74.1792 286.1234 14.46433017413716 IRIDIUM 17 1 24870U 97034B 24109.88211118 .00001490 00000-0 49752-3 0 9994 2 24870 86.3971 53.0893 0001944 41.1462 318.9881 14.36907924402639 IRIDIUM 920 1 24871U 97034C 24109.83538587 .00001382 00000-0 42679-3 0 9993 2 24871 86.4019 33.3290 0013293 48.5009 311.7329 14.40632583405467 IRIDIUM 921 1 24873U 97034E 24109.82647601 .00038288 00000-0 11189-2 0 9998 2 24873 86.3813 317.4280 0005885 108.5164 251.6727 15.35115890466342 IRIDIUM 26 1 24903U 97043A 24109.90466369 .00001240 00000-0 41811-3 0 9995 2 24903 86.3905 288.6461 0002275 87.6835 272.4623 14.36286795395823 IRIDIUM 22 1 24907U 97043E 24109.91450845 .00001156 00000-0 39784-3 0 9994 2 24907 86.3909 291.8346 0002079 91.2239 268.9195 14.35178659395901 DUMMY MASS 1 1 24925U 97048A 24109.80763934 .00001017 00000-0 11287-3 0 9997 2 24925 86.3346 331.4424 0005941 190.6373 169.4726 14.86140611442088 DUMMY MASS 2 1 24926U 97048B 24109.90196178 .00001015 00000-0 11333-3 0 9999 2 24926 86.3349 332.9309 0006271 204.9539 155.1383 14.85899831441882 IRIDIUM 29 1 24944U 97051A 24109.65713689 .00000944 00000-0 32082-3 0 9991 2 24944 86.3942 321.8804 0002022 94.6297 265.5131 14.35635012392340 IRIDIUM 33 1 24946U 97051C 24109.55865949 .00000639 00000-0 22058-3 0 9992 2 24946 86.3855 321.1772 0009037 36.7226 323.4587 14.34312602391876 IRIDIUM 28 1 24948U 97051E 24109.56113739 .00000940 00000-0 31335-3 0 9991 2 24948 86.3943 319.6790 0002423 80.3245 279.8225 14.36583891392861 IRIDIUM 36 1 24967U 97056C 24109.71761374 .00001119 00000-0 37318-3 0 9994 2 24967 86.4005 351.2638 0002031 82.5450 277.5978 14.36730795391251 IRIDIUM 39 1 25042U 97069D 24109.85230470 .00001931 00000-0 51588-3 0 9993 2 25042 86.3961 32.9324 0016131 285.1129 74.8289 14.47845401387533 IRIDIUM 38 1 25043U 97069E 24109.88311296 .00001548 00000-0 51402-3 0 9992 2 25043 86.3975 51.5684 0003896 69.9901 290.1716 14.37176998384997 IRIDIUM 42 1 25077U 97077A 24109.86584846 .00001411 00000-0 48423-3 0 9997 2 25077 86.3970 57.2264 0002872 82.0301 278.1222 14.35483959380304 IRIDIUM 44 1 25078U 97077B 24109.84517957 .00001456 00000-0 46278-3 0 9990 2 25078 86.3991 40.2999 0002581 41.1990 318.9403 14.39313865382647 IRIDIUM 45 1 25104U 97082A 24109.87958032 .00027381 00000-0 15702-2 0 9994 2 25104 86.3733 250.0485 0165768 95.1898 266.8276 15.01449634387957 IRIDIUM 24 1 25105U 97082B 24109.93715035 .00001598 00000-0 49028-3 0 9997 2 25105 86.3880 259.9488 0012854 46.6839 313.5429 14.41079104382099 IRIDIUM 51 1 25262U 98018A 24109.94454902 .00025945 00000-0 12473-2 0 9990 2 25262 86.3954 260.0093 0150873 41.6413 319.6194 15.09091162382478 IRIDIUM 57 1 25273U 98019B 24109.67474874 .00000850 00000-0 29085-3 0 9999 2 25273 86.3947 323.0673 0002142 88.3171 271.8270 14.35154547363883 IRIDIUM 63 1 25286U 98021B 24109.93018722 .00001308 00000-0 44659-3 0 9994 2 25286 86.3954 259.8296 0002001 97.8501 262.2922 14.35687676362957 IRIDIUM 69 1 25319U 98026A 24109.89445118 .00001652 00000-0 51972-3 0 9992 2 25319 86.3931 274.4213 0002540 32.5650 327.5705 14.39895109361982 IRIDIUM 71 1 25320U 98026B 24109.90751063 .00001470 00000-0 45887-3 0 9991 2 25320 86.3933 269.1850 0003897 68.8120 291.3495 14.40217912362509 IRIDIUM 73 1 25344U 98032C 24109.83599788 .00001871 00000-0 47411-3 0 9990 2 25344 86.4456 226.7248 0002035 77.9840 282.1592 14.50428056369023 IRIDIUM 82 1 25467U 98051A 24109.60709364 .00020791 00000-0 10824-2 0 9994 2 25467 86.3751 314.0204 0134069 79.6393 281.9925 15.08327390359506 IRIDIUM 2 1 25527U 98066A 24109.69144970 .00144474 00000-0 13304-2 0 9993 2 25527 85.5091 341.8282 0004002 136.2447 223.9138 15.67188720398544